Location: Newark
(57.7279°N, 5.6916°W)
Time: 05:59:34
(UTC+00:00)

N. Korean satellite - Pass Details

Date: 15 December 2019
Orbit: 454 x 507 km, 97.2° (Epoch: 22 January)

Event Time Altitude Azimuth Distance (km) Brightness Sun altitude
Rises 05:57:07 0° 19° (NNE) 2,552 10.4 -22.2°
Reaches altitude 10° 05:59:19 10° 28° (NNE) 1,657 9.5 -21.9°
Maximum altitude 06:02:38 37° 97° (E) 754 8.1 -21.5°
Drops below altitude 10° 06:05:53 10° 166° (SSE) 1,618 9.5 -21.0°
Sets 06:08:01 0° 175° (S) 2,481 10.4 -20.8°
